Time,TemperatureF,DewpointF,PressureIn,WindDirection,WindDirectionDegrees,WindSpeedMPH,WindSpeedGustMPH,Humidity,HourlyPrecipIn,Conditions,Clouds,dailyrainin,SoftwareType,DateUTC
2013-07-12 00:01:00,53.2,45.1,30.19,North,0,0.0,0.0,74,0.00,,SKC,0.00,VWS V14.01,2013-07-12 04:01:00,
2013-07-12 00:06:00,52.8,45.1,30.19,North,0,0.0,0.0,75,0.00,,SKC,0.00,VWS V14.01,2013-07-12 04:06:00,
2013-07-12 00:11:00,52.7,45.0,30.19,North,0,0.0,0.0,75,0.00,,SKC,0.00,VWS V14.01,2013-07-12 04:11:00,
2013-07-12 00:16:00,52.3,45.0,30.19,North,0,0.0,0.0,76,0.00,,SKC,0.00,VWS V14.01,2013-07-12 04:16:00,
2013-07-12 00:21:00,51.9,44.6,30.19,North,0,0.0,0.0,76,0.00,,SKC,0.00,VWS V14.01,2013-07-12 04:21:00,
2013-07-12 00:26:00,51.4,44.1,30.19,North,0,0.0,0.0,76,0.00,,SKC,0.00,VWS V14.01,2013-07-12 04:26:00,
2013-07-12 00:31:00,51.2,43.9,30.19,North,0,0.0,0.0,76,0.00,,SKC,0.00,VWS V14.01,2013-07-12 04:31:00,
2013-07-12 00:36:00,50.7,43.4,30.19,North,0,0.0,0.0,76,0.00,,SKC,0.00,VWS V14.01,2013-07-12 04:36:00,
2013-07-12 00:41:00,50.5,43.9,30.19,North,0,0.0,0.0,78,0.00,,SKC,0.00,VWS V14.01,2013-07-12 04:41:00,
2013-07-12 00:46:00,50.1,43.2,30.19,North,0,0.0,0.0,77,0.00,,SKC,0.00,VWS V14.01,2013-07-12 04:46:00,
2013-07-12 00:52:00,49.8,43.2,30.19,North,0,0.0,0.0,78,0.00,,SKC,0.00,VWS V14.01,2013-07-12 04:52:00,
2013-07-12 00:57:00,49.4,42.8,30.19,North,0,0.0,0.0,78,0.00,,SKC,0.00,VWS V14.01,2013-07-12 04:57:00,
2013-07-12 01:02:00,49.1,42.5,30.19,North,0,0.0,0.0,78,0.00,,SKC,0.00,VWS V14.01,2013-07-12 05:02:00,
2013-07-12 01:07:00,48.5,42.3,30.19,North,0,0.0,0.0,79,0.00,,SKC,0.00,VWS V14.01,2013-07-12 05:07:00,
2013-07-12 01:12:00,48.3,42.1,30.19,North,0,0.0,0.0,79,0.00,,SKC,0.00,VWS V14.01,2013-07-12 05:12:00,
2013-07-12 01:17:00,47.8,41.6,30.19,North,0,0.0,0.0,79,0.00,,SKC,0.00,VWS V14.01,2013-07-12 05:17:00,
2013-07-12 01:22:00,47.3,41.1,30.19,North,0,0.0,0.0,79,0.00,,SKC,0.00,VWS V14.01,2013-07-12 05:22:00,
2013-07-12 01:27:00,46.9,41.1,30.19,North,0,0.0,0.0,80,0.00,,SKC,0.00,VWS V14.01,2013-07-12 05:27:00,
2013-07-12 01:32:00,46.5,40.7,30.19,North,0,0.0,0.0,80,0.00,,SKC,0.00,VWS V14.01,2013-07-12 05:32:00,
2013-07-12 01:37:00,46.2,40.4,30.20,North,0,0.0,0.0,80,0.00,,SKC,0.00,VWS V14.01,2013-07-12 05:37:00,
2013-07-12 01:42:00,46.0,40.2,30.20,North,0,0.0,0.0,80,0.00,,SKC,0.00,VWS V14.01,2013-07-12 05:42:00,
2013-07-12 01:47:00,45.5,39.7,30.20,North,0,0.0,0.0,80,0.00,,SKC,0.00,VWS V14.01,2013-07-12 05:47:00,
2013-07-12 01:52:00,45.3,39.5,30.20,North,0,0.0,0.0,80,0.00,,SKC,0.00,VWS V14.01,2013-07-12 05:52:00,
2013-07-12 01:57:00,44.9,39.1,30.20,North,0,0.0,0.0,80,0.00,,SKC,0.00,VWS V14.01,2013-07-12 05:57:00,
2013-07-12 02:02:00,44.7,38.9,30.20,North,0,0.0,0.0,80,0.00,,SKC,0.00,VWS V14.01,2013-07-12 06:02:00,
2013-07-12 02:07:00,44.2,38.4,30.20,North,0,0.0,0.0,80,0.00,,SKC,0.00,VWS V14.01,2013-07-12 06:07:00,
2013-07-12 02:12:00,43.8,38.0,30.20,North,0,0.0,0.0,80,0.00,,SKC,0.00,VWS V14.01,2013-07-12 06:12:00,
2013-07-12 02:17:00,43.7,38.0,30.20,North,0,0.0,0.0,80,0.00,,SKC,0.00,VWS V14.01,2013-07-12 06:17:00,
2013-07-12 02:22:00,43.5,37.8,30.20,North,0,0.0,0.0,80,0.00,,SKC,0.00,VWS V14.01,2013-07-12 06:22:00,
2013-07-12 02:27:00,43.1,37.7,30.20,North,0,0.0,0.0,81,0.00,,SKC,0.00,VWS V14.01,2013-07-12 06:27:00,
2013-07-12 02:32:00,42.9,37.5,30.20,North,0,0.0,0.0,81,0.00,,SKC,0.00,VWS V14.01,2013-07-12 06:32:00,
2013-07-12 02:37:00,42.8,37.4,30.20,North,0,0.0,0.0,81,0.00,,SKC,0.00,VWS V14.01,2013-07-12 06:37:00,
2013-07-12 02:42:00,42.2,36.8,30.20,North,0,0.0,0.0,81,0.00,,SKC,0.00,VWS V14.01,2013-07-12 06:42:00,
2013-07-12 02:47:00,42.2,36.8,30.20,North,0,0.0,0.0,81,0.00,,SKC,0.00,VWS V14.01,2013-07-12 06:47:00,
2013-07-12 02:53:00,42.0,36.6,30.20,North,0,0.0,0.0,81,0.00,,SKC,0.00,VWS V14.01,2013-07-12 06:53:00,
2013-07-12 02:58:00,41.7,36.6,30.20,North,0,0.0,0.0,82,0.00,,SKC,0.00,VWS V14.01,2013-07-12 06:58:00,
2013-07-12 03:03:00,41.7,36.6,30.20,North,0,0.0,0.0,82,0.00,,SKC,0.00,VWS V14.01,2013-07-12 07:03:00,
2013-07-12 03:08:00,41.3,36.2,30.20,North,0,0.0,0.0,82,0.00,,SKC,0.00,VWS V14.01,2013-07-12 07:08:00,
2013-07-12 03:13:00,41.1,36.0,30.20,North,0,0.0,0.0,82,0.00,,SKC,0.00,VWS V14.01,2013-07-12 07:13:00,
2013-07-12 03:18:00,41.1,36.0,30.20,North,0,0.0,0.0,82,0.00,,SKC,0.00,VWS V14.01,2013-07-12 07:18:00,
2013-07-12 03:23:00,40.8,35.7,30.20,North,0,0.0,0.0,82,0.00,,SKC,0.00,VWS V14.01,2013-07-12 07:23:00,
2013-07-12 03:28:00,40.4,35.3,30.20,North,0,0.0,0.0,82,0.00,,SKC,0.00,VWS V14.01,2013-07-12 07:28:00,
2013-07-12 03:33:00,40.4,35.3,30.20,North,0,0.0,0.0,82,0.00,,SKC,0.00,VWS V14.01,2013-07-12 07:33:00,
2013-07-12 03:38:00,40.1,35.1,30.20,North,0,0.0,0.0,82,0.00,,SKC,0.00,VWS V14.01,2013-07-12 07:38:00,
2013-07-12 03:43:00,40.1,34.8,30.20,North,0,0.0,0.0,81,0.00,,SKC,0.00,VWS V14.01,2013-07-12 07:43:00,
2013-07-12 03:48:00,40.1,34.8,30.20,North,0,0.0,0.0,81,0.00,,SKC,0.00,VWS V14.01,2013-07-12 07:48:00,
2013-07-12 03:53:00,39.9,34.5,30.20,North,0,0.0,0.0,81,0.00,,SKC,0.00,VWS V14.01,2013-07-12 07:53:00,
2013-07-12 03:58:00,39.5,34.2,30.20,North,0,0.0,0.0,81,0.00,,SKC,0.00,VWS V14.01,2013-07-12 07:58:00,
2013-07-12 04:03:00,39.3,34.0,30.21,North,0,0.0,0.0,81,0.00,,SKC,0.00,VWS V14.01,2013-07-12 08:03:00,
2013-07-12 04:08:00,39.0,34.0,30.20,North,0,0.0,0.0,82,0.00,,SKC,0.00,VWS V14.01,2013-07-12 08:08:00,
2013-07-12 04:13:00,39.0,34.0,30.20,North,0,0.0,0.0,82,0.00,,SKC,0.00,VWS V14.01,2013-07-12 08:13:00,
2013-07-12 04:18:00,38.8,33.8,30.21,North,0,0.0,0.0,82,0.00,,SKC,0.00,VWS V14.01,2013-07-12 08:18:00,
2013-07-12 04:23:00,38.4,33.4,30.21,North,0,0.0,0.0,82,0.00,,SKC,0.00,VWS V14.01,2013-07-12 08:23:00,
2013-07-12 04:28:00,38.3,33.3,30.21,North,0,0.0,0.0,82,0.00,,SKC,0.00,VWS V14.01,2013-07-12 08:28:00,
2013-07-12 04:33:00,38.1,33.1,30.21,North,0,0.0,0.0,82,0.00,,SKC,0.00,VWS V14.01,2013-07-12 08:33:00,
2013-07-12 04:38:00,37.9,32.9,30.21,North,0,0.0,0.0,82,0.00,,SKC,0.00,VWS V14.01,2013-07-12 08:38:00,
2013-07-12 04:43:00,37.7,32.7,30.21,North,0,0.0,0.0,82,0.00,,SKC,0.00,VWS V14.01,2013-07-12 08:43:00,
2013-07-12 04:48:00,37.5,32.5,30.22,North,0,0.0,0.0,82,0.00,,SKC,0.00,VWS V14.01,2013-07-12 08:48:00,
2013-07-12 04:53:00,37.5,32.5,30.22,North,0,0.0,0.0,82,0.00,,SKC,0.00,VWS V14.01,2013-07-12 08:53:00,
2013-07-12 04:58:00,37.0,32.0,30.22,North,0,0.0,0.0,82,0.00,,SKC,0.00,VWS V14.01,2013-07-12 08:58:00,
2013-07-12 05:03:00,37.0,32.0,30.22,North,0,0.0,0.0,82,0.00,,SKC,0.00,VWS V14.01,2013-07-12 09:03:00,
2013-07-12 05:08:00,37.0,32.0,30.22,North,0,0.0,0.0,82,0.00,,SKC,0.00,VWS V14.01,2013-07-12 09:08:00,
2013-07-12 05:13:00,36.6,31.6,30.23,North,0,0.0,0.0,82,0.00,,SKC,0.00,VWS V14.01,2013-07-12 09:13:00,
2013-07-12 05:18:00,36.5,31.5,30.23,North,0,0.0,0.0,82,0.00,,SKC,0.00,VWS V14.01,2013-07-12 09:18:00,
2013-07-12 05:23:00,36.5,31.5,30.23,North,0,0.0,0.0,82,0.00,,SKC,0.00,VWS V14.01,2013-07-12 09:23:00,
2013-07-12 05:28:00,36.3,31.3,30.24,North,0,0.0,0.0,82,0.00,,SKC,0.00,VWS V14.01,2013-07-12 09:28:00,
2013-07-12 05:33:00,36.1,31.1,30.24,North,0,0.0,0.0,82,0.00,,SKC,0.00,VWS V14.01,2013-07-12 09:33:00,
2013-07-12 05:38:00,35.9,31.0,30.24,North,0,0.0,0.0,82,0.00,,SKC,0.00,VWS V14.01,2013-07-12 09:38:00,
2013-07-12 05:43:00,35.7,30.8,30.24,North,0,0.0,0.0,82,0.00,,SKC,0.00,VWS V14.01,2013-07-12 09:43:00,
2013-07-12 05:48:00,35.7,30.8,30.24,North,0,0.0,0.0,82,0.00,,SKC,0.00,VWS V14.01,2013-07-12 09:48:00,
2013-07-12 05:54:00,35.4,30.5,30.24,North,0,0.0,0.0,82,0.00,,SKC,0.00,VWS V14.01,2013-07-12 09:54:00,
2013-07-12 05:59:00,35.6,30.7,30.24,North,0,0.0,0.0,82,0.00,,SKC,0.00,VWS V14.01,2013-07-12 09:59:00,
2013-07-12 06:04:00,35.2,30.3,30.24,North,0,0.0,0.0,82,0.00,,SKC,0.00,VWS V14.01,2013-07-12 10:04:00,
2013-07-12 06:09:00,35.2,30.0,30.24,North,0,0.0,0.0,81,0.00,,SKC,0.00,VWS V14.01,2013-07-12 10:09:00,
2013-07-12 06:14:00,35.0,29.8,30.24,North,0,0.0,0.0,81,0.00,,SKC,0.00,VWS V14.01,2013-07-12 10:14:00,
2013-07-12 06:19:00,35.0,29.8,30.24,North,0,0.0,0.0,81,0.00,,SKC,0.00,VWS V14.01,2013-07-12 10:19:00,
2013-07-12 06:24:00,34.8,29.6,30.25,North,0,0.0,0.0,81,0.00,,SKC,0.00,VWS V14.01,2013-07-12 10:24:00,
2013-07-12 06:29:00,34.7,29.5,30.25,North,0,0.0,0.0,81,0.00,,SKC,0.00,VWS V14.01,2013-07-12 10:29:00,
2013-07-12 06:34:00,34.7,29.5,30.25,North,0,0.0,0.0,81,0.00,,SKC,0.00,VWS V14.01,2013-07-12 10:34:00,
2013-07-12 06:39:00,34.5,29.3,30.26,North,0,0.0,0.0,81,0.00,,SKC,0.00,VWS V14.01,2013-07-12 10:39:00,
2013-07-12 06:44:00,34.5,29.3,30.25,North,0,0.0,0.0,81,0.00,,SKC,0.00,VWS V14.01,2013-07-12 10:44:00,
2013-07-12 06:49:00,34.5,29.3,30.25,North,0,0.0,0.0,81,0.00,,SKC,0.00,VWS V14.01,2013-07-12 10:49:00,
2013-07-12 06:54:00,34.5,29.3,30.25,North,0,0.0,0.0,81,0.00,,SKC,0.00,VWS V14.01,2013-07-12 10:54:00,
2013-07-12 06:59:00,34.5,29.3,30.25,North,0,0.0,0.0,81,0.00,,SKC,0.00,VWS V14.01,2013-07-12 10:59:00,
2013-07-12 07:04:00,34.5,29.6,30.25,North,0,0.0,0.0,82,0.00,,SKC,0.00,VWS V14.01,2013-07-12 11:04:00,
2013-07-12 07:09:00,34.7,29.8,30.25,North,0,0.0,0.0,82,0.00,,SKC,0.00,VWS V14.01,2013-07-12 11:09:00,
2013-07-12 07:14:00,34.7,29.8,30.25,North,0,0.0,0.0,82,0.00,,SKC,0.00,VWS V14.01,2013-07-12 11:14:00,
2013-07-12 07:19:00,34.7,29.8,30.25,North,0,0.0,0.0,82,0.00,,SKC,0.00,VWS V14.01,2013-07-12 11:19:00,
2013-07-12 07:24:00,34.7,29.8,30.25,North,0,0.0,0.0,82,0.00,,SKC,0.00,VWS V14.01,2013-07-12 11:24:00,
2013-07-12 07:29:00,34.7,29.8,30.25,North,0,0.0,0.0,82,0.00,,SKC,0.00,VWS V14.01,2013-07-12 11:29:00,
2013-07-12 07:34:00,34.8,29.9,30.25,North,0,0.0,0.0,82,0.00,,SKC,0.00,VWS V14.01,2013-07-12 11:34:00,
2013-07-12 07:39:00,34.8,29.9,30.25,North,0,0.0,0.0,82,0.00,,SKC,0.00,VWS V14.01,2013-07-12 11:39:00,
2013-07-12 07:45:00,35.2,30.3,30.25,North,0,0.0,0.0,82,0.00,,SKC,0.00,VWS V14.01,2013-07-12 11:45:00,
2013-07-12 07:50:00,35.2,30.0,30.25,North,0,0.0,0.0,81,0.00,,SKC,0.00,VWS V14.01,2013-07-12 11:50:00,
2013-07-12 07:55:00,35.4,30.2,30.25,North,0,0.0,0.0,81,0.00,,SKC,0.00,VWS V14.01,2013-07-12 11:55:00,
2013-07-12 08:00:00,35.4,30.2,30.25,North,0,0.0,0.0,81,0.00,,SKC,0.00,VWS V14.01,2013-07-12 12:00:00,
2013-07-12 08:05:00,35.7,30.5,30.25,North,0,0.0,0.0,81,0.00,,SKC,0.00,VWS V14.01,2013-07-12 12:05:00,
2013-07-12 08:10:00,35.7,30.5,30.25,North,0,0.0,0.0,81,0.00,,SKC,0.00,VWS V14.01,2013-07-12 12:10:00,
2013-07-12 08:15:00,35.9,30.3,30.25,North,0,0.0,0.0,80,0.00,,SKC,0.00,VWS V14.01,2013-07-12 12:15:00,
2013-07-12 08:20:00,36.5,30.9,30.25,North,0,0.0,0.0,80,0.00,,SKC,0.00,VWS V14.01,2013-07-12 12:20:00,
2013-07-12 08:25:00,36.8,31.2,30.26,North,0,0.0,0.0,80,0.00,,SKC,0.00,VWS V14.01,2013-07-12 12:25:00,
2013-07-12 08:30:00,37.2,31.6,30.26,North,0,0.0,0.0,80,0.00,,SKC,0.00,VWS V14.01,2013-07-12 12:30:00,
2013-07-12 08:35:00,38.1,32.5,30.26,North,0,0.0,0.0,80,0.00,,SKC,0.00,VWS V14.01,2013-07-12 12:35:00,
2013-07-12 08:40:00,38.8,32.9,30.26,North,0,0.0,0.0,79,0.00,,SKC,0.00,VWS V14.01,2013-07-12 12:40:00,
2013-07-12 08:45:00,39.9,33.9,30.26,North,0,0.0,0.0,79,0.00,,SKC,0.00,VWS V14.01,2013-07-12 12:45:00,
2013-07-12 08:50:00,41.3,34.7,30.26,North,0,0.0,0.0,77,0.00,,SKC,0.00,VWS V14.01,2013-07-12 12:50:00,
2013-07-12 08:55:00,42.8,35.8,30.27,North,0,0.0,0.0,76,0.00,,SKC,0.00,VWS V14.01,2013-07-12 12:55:00,
2013-07-12 09:00:00,44.0,36.6,30.27,North,0,0.0,0.0,75,0.00,,SKC,0.00,VWS V14.01,2013-07-12 13:00:00,
2013-07-12 09:05:00,46.7,38.5,30.27,North,0,0.0,0.0,73,0.00,,SKC,0.00,VWS V14.01,2013-07-12 13:05:00,
2013-07-12 09:10:00,48.7,40.1,30.27,North,0,0.0,0.0,72,0.00,,SKC,0.00,VWS V14.01,2013-07-12 13:10:00,
2013-07-12 09:15:00,50.3,40.9,30.27,North,0,0.0,0.0,70,0.00,,SKC,0.00,VWS V14.01,2013-07-12 13:15:00,
2013-07-12 09:20:00,51.9,42.1,30.27,North,0,0.0,0.0,69,0.00,,SKC,0.00,VWS V14.01,2013-07-12 13:20:00,
2013-07-12 09:25:00,53.7,43.4,30.27,North,0,0.0,0.0,68,0.00,,SKC,0.00,VWS V14.01,2013-07-12 13:25:00,
2013-07-12 09:30:00,54.8,44.1,30.27,North,0,0.0,0.0,67,0.00,,SKC,0.00,VWS V14.01,2013-07-12 13:30:00,
2013-07-12 09:35:00,55.9,45.1,30.27,North,0,0.0,0.0,67,0.00,,SKC,0.00,VWS V14.01,2013-07-12 13:35:00,
2013-07-12 09:40:00,57.3,45.7,30.27,North,0,0.0,0.0,65,0.00,,SKC,0.00,VWS V14.01,2013-07-12 13:40:00,
2013-07-12 09:45:00,58.1,46.4,30.27,North,0,0.0,0.0,65,0.00,,SKC,0.00,VWS V14.01,2013-07-12 13:45:00,
2013-07-12 09:50:00,59.1,47.0,30.27,North,0,0.0,0.0,64,0.00,,SKC,0.00,VWS V14.01,2013-07-12 13:50:00,
2013-07-12 09:55:00,60.4,47.8,30.28,North,0,0.0,0.0,63,0.00,,SKC,0.00,VWS V14.01,2013-07-12 13:55:00,
2013-07-12 10:00:00,61.5,48.8,30.27,North,0,0.0,0.0,63,0.00,,SKC,0.00,VWS V14.01,2013-07-12 14:00:00,
2013-07-12 10:05:00,62.2,48.6,30.27,North,0,0.0,0.0,61,0.00,,SKC,0.00,VWS V14.01,2013-07-12 14:05:00,
2013-07-12 10:10:00,63.5,48.9,30.27,North,0,0.0,0.0,59,0.00,,SKC,0.00,VWS V14.01,2013-07-12 14:10:00,
2013-07-12 10:15:00,64.2,49.6,30.27,North,0,0.0,0.0,59,0.00,,SKC,0.00,VWS V14.01,2013-07-12 14:15:00,
2013-07-12 10:20:00,64.7,50.1,30.27,North,0,0.0,0.0,59,0.00,,SKC,0.00,VWS V14.01,2013-07-12 14:20:00,
2013-07-12 10:25:00,65.8,50.6,30.27,North,0,0.0,0.0,58,0.00,,SKC,0.00,VWS V14.01,2013-07-12 14:25:00,
2013-07-12 10:30:00,66.5,50.8,30.27,North,0,0.0,0.0,57,0.00,,SKC,0.00,VWS V14.01,2013-07-12 14:30:00,
2013-07-12 10:35:00,67.4,51.7,30.27,North,0,0.0,0.0,57,0.00,,SKC,0.00,VWS V14.01,2013-07-12 14:35:00,
2013-07-12 10:40:00,68.1,51.8,30.27,North,0,0.0,0.0,56,0.00,,SKC,0.00,VWS V14.01,2013-07-12 14:40:00,
2013-07-12 10:45:00,68.9,51.6,30.26,North,0,0.0,0.0,54,0.00,,SKC,0.00,VWS V14.01,2013-07-12 14:45:00,
2013-07-12 10:50:00,69.4,52.0,30.26,North,0,0.0,0.0,54,0.00,,SKC,0.00,VWS V14.01,2013-07-12 14:50:00,
2013-07-12 10:55:00,70.1,52.2,30.26,North,0,0.0,0.0,53,0.00,,SKC,0.00,VWS V14.01,2013-07-12 14:55:00,
2013-07-12 11:00:00,70.7,52.8,30.27,North,0,0.0,0.0,53,0.00,,SKC,0.00,VWS V14.01,2013-07-12 15:00:00,
2013-07-12 11:05:00,71.4,51.8,30.27,North,0,0.0,0.0,50,0.00,,SKC,0.00,VWS V14.01,2013-07-12 15:05:00,
2013-07-12 11:10:00,71.6,52.0,30.27,North,0,0.0,0.0,50,0.00,,SKC,0.00,VWS V14.01,2013-07-12 15:10:00,
2013-07-12 11:15:00,71.9,52.8,30.26,North,0,0.0,0.0,51,0.00,,SKC,0.00,VWS V14.01,2013-07-12 15:15:00,
2013-07-12 11:20:00,72.3,52.6,30.26,North,0,0.0,0.0,50,0.00,,SKC,0.00,VWS V14.01,2013-07-12 15:20:00,
2013-07-12 11:25:00,72.5,52.8,30.26,North,0,0.0,0.0,50,0.00,,SKC,0.00,VWS V14.01,2013-07-12 15:25:00,
2013-07-12 11:30:00,73.0,53.3,30.26,North,0,0.0,0.0,50,0.00,,SKC,0.00,VWS V14.01,2013-07-12 15:30:00,
2013-07-12 11:35:00,73.4,53.7,30.26,North,0,0.0,0.0,50,0.00,,SKC,0.00,VWS V14.01,2013-07-12 15:35:00,
2013-07-12 11:40:00,73.5,53.2,30.26,North,0,0.0,0.0,49,0.00,,SKC,0.00,VWS V14.01,2013-07-12 15:40:00,
2013-07-12 11:45:00,73.7,53.4,30.26,North,0,0.0,0.0,49,0.00,,SKC,0.00,VWS V14.01,2013-07-12 15:45:00,
2013-07-12 11:50:00,74.3,54.5,30.26,North,0,0.0,0.0,50,0.00,,SKC,0.00,VWS V14.01,2013-07-12 15:50:00,
2013-07-12 11:56:00,74.6,55.3,30.26,North,0,0.0,0.0,51,0.00,,SKC,0.00,VWS V14.01,2013-07-12 15:56:00,
2013-07-12 12:01:00,75.3,54.8,30.26,North,0,0.0,0.0,49,0.00,,SKC,0.00,VWS V14.01,2013-07-12 16:01:00,
2013-07-12 12:06:00,75.9,54.2,30.26,North,0,0.0,0.0,47,0.00,,SKC,0.00,VWS V14.01,2013-07-12 16:06:00,
2013-07-12 12:11:00,75.9,54.2,30.26,North,0,0.0,0.0,47,0.00,,SKC,0.00,VWS V14.01,2013-07-12 16:11:00,
2013-07-12 12:16:00,75.5,53.9,30.26,North,0,0.0,0.0,47,0.00,,SKC,0.00,VWS V14.01,2013-07-12 16:16:00,
2013-07-12 12:21:00,75.9,54.8,30.27,North,0,0.0,0.0,48,0.00,,SKC,0.00,VWS V14.01,2013-07-12 16:21:00,
2013-07-12 12:26:00,76.2,53.9,30.26,North,0,0.0,0.0,46,0.00,,SKC,0.00,VWS V14.01,2013-07-12 16:26:00,
2013-07-12 12:31:00,76.8,55.7,30.26,North,0,0.0,0.0,48,0.00,,SKC,0.00,VWS V14.01,2013-07-12 16:31:00,
2013-07-12 12:36:00,77.9,54.9,30.26,North,0,0.0,0.0,45,0.00,,SKC,0.00,VWS V14.01,2013-07-12 16:36:00,
2013-07-12 12:41:00,78.0,54.3,30.26,North,0,0.0,0.0,44,0.00,,SKC,0.00,VWS V14.01,2013-07-12 16:41:00,
2013-07-12 12:46:00,77.9,53.6,30.25,North,0,0.0,0.0,43,0.00,,SKC,0.00,VWS V14.01,2013-07-12 16:46:00,
2013-07-12 12:51:00,77.5,54.5,30.26,North,0,0.0,0.0,45,0.00,,SKC,0.00,VWS V14.01,2013-07-12 16:51:00,
2013-07-12 12:56:00,77.3,54.9,30.26,North,0,0.0,0.0,46,0.00,,SKC,0.00,VWS V14.01,2013-07-12 16:56:00,
2013-07-12 13:01:00,77.3,54.9,30.25,North,0,0.0,0.0,46,0.00,,SKC,0.00,VWS V14.01,2013-07-12 17:01:00,
2013-07-12 13:06:00,78.2,56.3,30.25,North,0,0.0,0.0,47,0.00,,SKC,0.00,VWS V14.01,2013-07-12 17:06:00,
2013-07-12 13:11:00,78.4,54.7,30.25,North,0,0.0,0.0,44,0.00,,SKC,0.00,VWS V14.01,2013-07-12 17:11:00,
2013-07-12 13:16:00,78.4,54.1,30.24,North,0,0.0,0.0,43,0.00,,SKC,0.00,VWS V14.01,2013-07-12 17:16:00,
2013-07-12 13:21:00,78.4,53.4,30.24,North,0,0.0,0.0,42,0.00,,SKC,0.00,VWS V14.01,2013-07-12 17:21:00,
2013-07-12 13:27:00,78.4,54.7,30.24,North,0,0.0,0.0,44,0.00,,SKC,0.00,VWS V14.01,2013-07-12 17:27:00,
2013-07-12 13:32:00,78.9,55.8,30.24,North,0,0.0,0.0,45,0.00,,SKC,0.00,VWS V14.01,2013-07-12 17:32:00,
2013-07-12 13:37:00,79.8,56.0,30.24,North,0,0.0,0.0,44,0.00,,SKC,0.00,VWS V14.01,2013-07-12 17:37:00,
2013-07-12 13:42:00,79.1,53.4,30.24,North,0,0.0,0.0,41,0.00,,SKC,0.00,VWS V14.01,2013-07-12 17:42:00,
2013-07-12 13:47:00,79.1,53.4,30.24,North,0,0.0,0.0,41,0.00,,SKC,0.00,VWS V14.01,2013-07-12 17:47:00,
2013-07-12 13:52:00,79.3,52.9,30.24,North,0,0.0,0.0,40,0.00,,SKC,0.00,VWS V14.01,2013-07-12 17:52:00,
2013-07-12 13:57:00,79.1,54.1,30.24,North,0,0.0,0.0,42,0.00,,SKC,0.00,VWS V14.01,2013-07-12 17:57:00,
2013-07-12 14:02:00,79.8,54.7,30.24,North,0,0.0,0.0,42,0.00,,SKC,0.00,VWS V14.01,2013-07-12 18:02:00,
2013-07-12 14:07:00,80.9,55.7,30.24,North,0,0.0,0.0,42,0.00,,SKC,0.00,VWS V14.01,2013-07-12 18:07:00,
2013-07-12 14:12:00,81.5,55.5,30.24,North,0,0.0,0.0,41,0.00,,SKC,0.00,VWS V14.01,2013-07-12 18:12:00,
2013-07-12 14:17:00,82.2,54.8,30.24,North,0,0.0,0.0,39,0.00,,SKC,0.00,VWS V14.01,2013-07-12 18:17:00,
2013-07-12 14:22:00,83.1,54.9,30.24,North,0,0.0,0.0,38,0.00,,SKC,0.00,VWS V14.01,2013-07-12 18:22:00,
2013-07-12 14:28:00,83.3,55.1,30.24,North,0,0.0,0.0,38,0.00,,SKC,0.00,VWS V14.01,2013-07-12 18:28:00,
2013-07-12 14:33:00,83.1,53.4,30.24,North,0,0.0,0.0,36,0.00,,SKC,0.00,VWS V14.01,2013-07-12 18:33:00,
2013-07-12 14:38:00,82.5,53.6,30.24,North,0,0.0,0.0,37,0.00,,SKC,0.00,VWS V14.01,2013-07-12 18:38:00,
2013-07-12 14:43:00,82.2,53.4,30.24,North,0,0.0,0.0,37,0.00,,SKC,0.00,VWS V14.01,2013-07-12 18:43:00,
2013-07-12 14:48:00,82.0,53.2,30.24,North,0,0.0,0.0,37,0.00,,SKC,0.00,VWS V14.01,2013-07-12 18:48:00,
2013-07-12 14:53:00,82.0,53.2,30.24,North,0,0.0,0.0,37,0.00,,SKC,0.00,VWS V14.01,2013-07-12 18:53:00,
2013-07-12 14:58:00,81.8,52.3,30.24,North,0,0.0,0.0,36,0.00,,SKC,0.00,VWS V14.01,2013-07-12 18:58:00,
2013-07-12 15:04:00,82.0,52.4,30.24,North,0,0.0,0.0,36,0.00,,SKC,0.00,VWS V14.01,2013-07-12 19:04:00,
2013-07-12 15:09:00,82.0,53.2,30.24,North,0,0.0,0.0,37,0.00,,SKC,0.00,VWS V14.01,2013-07-12 19:09:00,
2013-07-12 15:14:00,83.1,54.9,30.24,North,0,0.0,0.0,38,0.00,,SKC,0.00,VWS V14.01,2013-07-12 19:14:00,
2013-07-12 15:19:00,83.3,54.3,30.24,North,0,0.0,0.0,37,0.00,,SKC,0.00,VWS V14.01,2013-07-12 19:19:00,
2013-07-12 15:24:00,83.3,54.3,30.24,North,0,0.0,0.0,37,0.00,,SKC,0.00,VWS V14.01,2013-07-12 19:24:00,
2013-07-12 15:30:00,83.6,54.6,30.24,North,0,0.0,0.0,37,0.00,,SKC,0.00,VWS V14.01,2013-07-12 19:30:00,
2013-07-12 15:35:00,83.6,52.3,30.24,North,0,0.0,0.0,34,0.00,,SKC,0.00,VWS V14.01,2013-07-12 19:35:00,
2013-07-12 15:40:00,83.3,52.8,30.24,North,0,0.0,0.0,35,0.00,,SKC,0.00,VWS V14.01,2013-07-12 19:40:00,
2013-07-12 15:45:00,83.3,53.6,30.24,North,0,0.0,0.0,36,0.00,,SKC,0.00,VWS V14.01,2013-07-12 19:45:00,
2013-07-12 15:50:00,82.9,53.2,30.24,North,0,0.0,0.0,36,0.00,,SKC,0.00,VWS V14.01,2013-07-12 19:50:00,
2013-07-12 15:55:00,82.7,51.5,30.24,North,0,0.0,0.0,34,0.00,,SKC,0.00,VWS V14.01,2013-07-12 19:55:00,
2013-07-12 16:00:00,83.1,52.6,30.24,North,0,0.0,0.0,35,0.00,,SKC,0.00,VWS V14.01,2013-07-12 20:00:00,
2013-07-12 16:05:00,83.3,52.0,30.24,North,0,0.0,0.0,34,0.00,,SKC,0.00,VWS V14.01,2013-07-12 20:05:00,
2013-07-12 16:11:00,83.6,53.1,30.24,North,0,0.0,0.0,35,0.00,,SKC,0.00,VWS V14.01,2013-07-12 20:11:00,
2013-07-12 16:16:00,83.8,51.7,30.24,North,0,0.0,0.0,33,0.00,,SKC,0.00,VWS V14.01,2013-07-12 20:16:00,
2013-07-12 16:22:00,83.6,52.3,30.24,North,0,0.0,0.0,34,0.00,,SKC,0.00,VWS V14.01,2013-07-12 20:22:00,
2013-07-12 16:27:00,83.6,50.7,30.24,North,0,0.0,0.0,32,0.00,,SKC,0.00,VWS V14.01,2013-07-12 20:27:00,
2013-07-12 16:32:00,83.8,51.7,30.24,North,0,0.0,0.0,33,0.00,,SKC,0.00,VWS V14.01,2013-07-12 20:32:00,
2013-07-12 16:37:00,83.8,51.7,30.24,North,0,0.0,0.0,33,0.00,,SKC,0.00,VWS V14.01,2013-07-12 20:37:00,
2013-07-12 16:42:00,84.3,52.9,30.24,North,0,0.0,0.0,34,0.00,,SKC,0.00,VWS V14.01,2013-07-12 20:42:00,
2013-07-12 16:47:00,84.3,52.1,30.24,North,0,0.0,0.0,33,0.00,,SKC,0.00,VWS V14.01,2013-07-12 20:47:00,
2013-07-12 16:52:00,83.8,51.7,30.23,North,0,0.0,0.0,33,0.00,,SKC,0.00,VWS V14.01,2013-07-12 20:52:00,
2013-07-12 16:57:00,83.8,52.5,30.23,North,0,0.0,0.0,34,0.00,,SKC,0.00,VWS V14.01,2013-07-12 20:57:00,
2013-07-12 17:03:00,83.6,52.3,30.23,North,0,0.0,0.0,34,0.00,,SKC,0.00,VWS V14.01,2013-07-12 21:03:00,
2013-07-12 17:08:00,83.6,52.3,30.23,North,0,0.0,0.0,34,0.00,,SKC,0.00,VWS V14.01,2013-07-12 21:08:00,
2013-07-12 17:13:00,83.3,52.0,30.23,North,0,0.0,0.0,34,0.00,,SKC,0.00,VWS V14.01,2013-07-12 21:13:00,
2013-07-12 17:18:00,83.4,52.1,30.23,North,0,0.0,0.0,34,0.00,,SKC,0.00,VWS V14.01,2013-07-12 21:18:00,
2013-07-12 17:23:00,83.4,51.3,30.23,North,0,0.0,0.0,33,0.00,,SKC,0.00,VWS V14.01,2013-07-12 21:23:00,
2013-07-12 17:28:00,83.3,50.4,30.23,North,0,0.0,0.0,32,0.00,,SKC,0.00,VWS V14.01,2013-07-12 21:28:00,
2013-07-12 17:33:00,82.9,51.7,30.23,North,0,0.0,0.0,34,0.00,,SKC,0.00,VWS V14.01,2013-07-12 21:33:00,
2013-07-12 17:38:00,81.8,49.9,30.23,North,0,0.0,0.0,33,0.00,,SKC,0.00,VWS V14.01,2013-07-12 21:38:00,
2013-07-12 17:43:00,81.3,50.3,30.23,North,0,0.0,0.0,34,0.00,,SKC,0.00,VWS V14.01,2013-07-12 21:43:00,
2013-07-12 17:48:00,81.3,50.3,30.23,North,0,0.0,0.0,34,0.00,,SKC,0.00,VWS V14.01,2013-07-12 21:48:00,
2013-07-12 17:54:00,81.3,51.1,30.23,North,0,0.0,0.0,35,0.00,,SKC,0.00,VWS V14.01,2013-07-12 21:54:00,
2013-07-12 17:59:00,81.3,50.3,30.23,North,0,0.0,0.0,34,0.00,,SKC,0.00,VWS V14.01,2013-07-12 21:59:00,
2013-07-12 18:04:00,81.3,50.3,30.23,North,0,0.0,0.0,34,0.00,,SKC,0.00,VWS V14.01,2013-07-12 22:04:00,
2013-07-12 18:09:00,81.5,52.0,30.23,North,0,0.0,0.0,36,0.00,,SKC,0.00,VWS V14.01,2013-07-12 22:09:00,
2013-07-12 18:14:00,82.0,50.1,30.23,North,0,0.0,0.0,33,0.00,,SKC,0.00,VWS V14.01,2013-07-12 22:14:00,
2013-07-12 18:19:00,81.8,49.9,30.23,North,0,0.0,0.0,33,0.00,,SKC,0.00,VWS V14.01,2013-07-12 22:19:00,
2013-07-12 18:24:00,82.2,51.1,30.22,North,0,0.0,0.0,34,0.00,,SKC,0.00,VWS V14.01,2013-07-12 22:24:00,
2013-07-12 18:29:00,82.4,51.2,30.22,North,0,0.0,0.0,34,0.00,,SKC,0.00,VWS V14.01,2013-07-12 22:29:00,
2013-07-12 18:34:00,82.5,51.3,30.22,North,0,0.0,0.0,34,0.00,,SKC,0.00,VWS V14.01,2013-07-12 22:34:00,
2013-07-12 18:39:00,82.7,52.3,30.22,North,0,0.0,0.0,35,0.00,,SKC,0.00,VWS V14.01,2013-07-12 22:39:00,
2013-07-12 18:44:00,83.1,51.9,30.22,North,0,0.0,0.0,34,0.00,,SKC,0.00,VWS V14.01,2013-07-12 22:44:00,
2013-07-12 18:49:00,83.1,51.9,30.22,North,0,0.0,0.0,34,0.00,,SKC,0.00,VWS V14.01,2013-07-12 22:49:00,
2013-07-12 18:55:00,82.7,51.5,30.22,North,0,0.0,0.0,34,0.00,,SKC,0.00,VWS V14.01,2013-07-12 22:55:00,
2013-07-12 19:00:00,82.4,51.2,30.22,North,0,0.0,0.0,34,0.00,,SKC,0.00,VWS V14.01,2013-07-12 23:00:00,
2013-07-12 19:05:00,82.4,52.0,30.22,North,0,0.0,0.0,35,0.00,,SKC,0.00,VWS V14.01,2013-07-12 23:05:00,
2013-07-12 19:10:00,82.2,51.8,30.22,North,0,0.0,0.0,35,0.00,,SKC,0.00,VWS V14.01,2013-07-12 23:10:00,
2013-07-12 19:15:00,82.2,51.1,30.22,North,0,0.0,0.0,34,0.00,,SKC,0.00,VWS V14.01,2013-07-12 23:15:00,
2013-07-12 19:20:00,82.5,51.3,30.22,North,0,0.0,0.0,34,0.00,,SKC,0.00,VWS V14.01,2013-07-12 23:20:00,
2013-07-12 19:26:00,82.5,52.1,30.22,North,0,0.0,0.0,35,0.00,,SKC,0.00,VWS V14.01,2013-07-12 23:26:00,
2013-07-12 19:31:00,82.4,51.2,30.22,North,0,0.0,0.0,34,0.00,,SKC,0.00,VWS V14.01,2013-07-12 23:31:00,
2013-07-12 19:36:00,82.0,51.7,30.22,North,0,0.0,0.0,35,0.00,,SKC,0.00,VWS V14.01,2013-07-12 23:36:00,
2013-07-12 19:41:00,81.5,51.2,30.22,North,0,0.0,0.0,35,0.00,,SKC,0.00,VWS V14.01,2013-07-12 23:41:00,
2013-07-12 19:46:00,81.3,51.1,30.22,North,0,0.0,0.0,35,0.00,,SKC,0.00,VWS V14.01,2013-07-12 23:46:00,
2013-07-12 19:51:00,80.9,51.5,30.22,North,0,0.0,0.0,36,0.00,,SKC,0.00,VWS V14.01,2013-07-12 23:51:00,
2013-07-12 19:56:00,80.9,52.2,30.22,North,0,0.0,0.0,37,0.00,,SKC,0.00,VWS V14.01,2013-07-12 23:56:00,
2013-07-12 20:01:00,80.2,51.6,30.22,North,0,0.0,0.0,37,0.00,,SKC,0.00,VWS V14.01,2013-07-13 00:01:00,
2013-07-12 20:06:00,79.7,51.9,30.23,North,0,0.0,0.0,38,0.00,,SKC,0.00,VWS V14.01,2013-07-13 00:06:00,
2013-07-12 20:11:00,79.5,51.7,30.23,North,0,0.0,0.0,38,0.00,,SKC,0.00,VWS V14.01,2013-07-13 00:11:00,
2013-07-12 20:16:00,78.9,51.9,30.23,North,0,0.0,0.0,39,0.00,,SKC,0.00,VWS V14.01,2013-07-13 00:16:00,
2013-07-12 20:21:00,78.4,52.1,30.23,North,0,0.0,0.0,40,0.00,,SKC,0.00,VWS V14.01,2013-07-13 00:21:00,
2013-07-12 20:26:00,78.2,51.9,30.23,North,0,0.0,0.0,40,0.00,,SKC,0.00,VWS V14.01,2013-07-13 00:26:00,
2013-07-12 20:31:00,77.7,52.8,30.23,North,0,0.0,0.0,42,0.00,,SKC,0.00,VWS V14.01,2013-07-13 00:31:00,
2013-07-12 20:36:00,77.3,52.5,30.23,North,0,0.0,0.0,42,0.00,,SKC,0.00,VWS V14.01,2013-07-13 00:36:00,
2013-07-12 20:42:00,76.8,52.0,30.23,North,0,0.0,0.0,42,0.00,,SKC,0.00,VWS V14.01,2013-07-13 00:42:00,
2013-07-12 20:47:00,76.4,52.3,30.23,North,0,0.0,0.0,43,0.00,,SKC,0.00,VWS V14.01,2013-07-13 00:47:00,
2013-07-12 20:52:00,76.1,52.6,30.23,North,0,0.0,0.0,44,0.00,,SKC,0.00,VWS V14.01,2013-07-13 00:52:00,
2013-07-12 20:57:00,75.3,53.1,30.24,North,0,0.0,0.0,46,0.00,,SKC,0.00,VWS V14.01,2013-07-13 00:57:00,
2013-07-12 21:02:00,74.6,53.1,30.24,North,0,0.0,0.0,47,0.00,,SKC,0.00,VWS V14.01,2013-07-13 01:02:00,
2013-07-12 21:07:00,73.9,53.6,30.23,North,0,0.0,0.0,49,0.00,,SKC,0.00,VWS V14.01,2013-07-13 01:07:00,
2013-07-12 21:12:00,73.5,53.2,30.23,North,0,0.0,0.0,49,0.00,,SKC,0.00,VWS V14.01,2013-07-13 01:12:00,
2013-07-12 21:17:00,73.0,52.7,30.23,North,0,0.0,0.0,49,0.00,,SKC,0.00,VWS V14.01,2013-07-13 01:17:00,
2013-07-12 21:22:00,72.5,52.8,30.24,North,0,0.0,0.0,50,0.00,,SKC,0.00,VWS V14.01,2013-07-13 01:22:00,
2013-07-12 21:28:00,72.1,53.0,30.24,North,0,0.0,0.0,51,0.00,,SKC,0.00,VWS V14.01,2013-07-13 01:28:00,
2013-07-12 21:33:00,71.4,53.4,30.24,North,0,0.0,0.0,53,0.00,,SKC,0.00,VWS V14.01,2013-07-13 01:33:00,
2013-07-12 21:38:00,71.0,53.0,30.24,North,0,0.0,0.0,53,0.00,,SKC,0.00,VWS V14.01,2013-07-13 01:38:00,
2013-07-12 21:43:00,70.5,54.1,30.24,North,0,0.0,0.0,56,0.00,,SKC,0.00,VWS V14.01,2013-07-13 01:43:00,
2013-07-12 21:48:00,69.9,53.5,30.24,North,0,0.0,0.0,56,0.00,,SKC,0.00,VWS V14.01,2013-07-13 01:48:00,
2013-07-12 21:53:00,69.6,53.2,30.24,North,0,0.0,0.0,56,0.00,,SKC,0.00,VWS V14.01,2013-07-13 01:53:00,
2013-07-12 21:58:00,69.0,53.2,30.24,North,0,0.0,0.0,57,0.00,,SKC,0.00,VWS V14.01,2013-07-13 01:58:00,
2013-07-12 22:03:00,68.7,52.9,30.25,North,0,0.0,0.0,57,0.00,,SKC,0.00,VWS V14.01,2013-07-13 02:03:00,
2013-07-12 22:08:00,68.5,53.2,30.25,North,0,0.0,0.0,58,0.00,,SKC,0.00,VWS V14.01,2013-07-13 02:08:00,
2013-07-12 22:13:00,68.3,53.4,30.25,North,0,0.0,0.0,59,0.00,,SKC,0.00,VWS V14.01,2013-07-13 02:13:00,
2013-07-12 22:18:00,68.3,53.4,30.25,North,0,0.0,0.0,59,0.00,,SKC,0.00,VWS V14.01,2013-07-13 02:18:00,
2013-07-12 22:23:00,68.1,53.7,30.25,North,0,0.0,0.0,60,0.00,,SKC,0.00,VWS V14.01,2013-07-13 02:23:00,
2013-07-12 22:29:00,67.6,53.2,30.25,North,0,0.0,0.0,60,0.00,,SKC,0.00,VWS V14.01,2013-07-13 02:29:00,
2013-07-12 22:34:00,67.4,53.0,30.25,North,0,0.0,0.0,60,0.00,,SKC,0.00,VWS V14.01,2013-07-13 02:34:00,
2013-07-12 22:39:00,67.1,53.2,30.25,North,0,0.0,0.0,61,0.00,,SKC,0.00,VWS V14.01,2013-07-13 02:39:00,
2013-07-12 22:44:00,66.5,53.1,30.25,North,0,0.0,0.0,62,0.00,,SKC,0.00,VWS V14.01,2013-07-13 02:44:00,
2013-07-12 22:49:00,66.3,52.9,30.25,North,0,0.0,0.0,62,0.00,,SKC,0.00,VWS V14.01,2013-07-13 02:49:00,
2013-07-12 22:54:00,66.0,52.6,30.25,North,0,0.0,0.0,62,0.00,,SKC,0.00,VWS V14.01,2013-07-13 02:54:00,
2013-07-12 22:59:00,65.6,52.2,30.25,North,0,0.0,0.0,62,0.00,,SKC,0.00,VWS V14.01,2013-07-13 02:59:00,
2013-07-12 23:04:00,65.4,52.5,30.26,North,0,0.0,0.0,63,0.00,,SKC,0.00,VWS V14.01,2013-07-13 03:04:00,
2013-07-12 23:09:00,65.6,52.7,30.25,North,0,0.0,0.0,63,0.00,,SKC,0.00,VWS V14.01,2013-07-13 03:09:00,
2013-07-12 23:14:00,65.4,52.5,30.25,North,0,0.0,0.0,63,0.00,,SKC,0.00,VWS V14.01,2013-07-13 03:14:00,
2013-07-12 23:19:00,65.3,52.4,30.25,North,0,0.0,0.0,63,0.00,,SKC,0.00,VWS V14.01,2013-07-13 03:19:00,
2013-07-12 23:25:00,65.3,52.8,30.25,North,0,0.0,0.0,64,0.00,,SKC,0.00,VWS V14.01,2013-07-13 03:25:00,
2013-07-12 23:30:00,65.3,52.4,30.25,North,0,0.0,0.0,63,0.00,,SKC,0.00,VWS V14.01,2013-07-13 03:30:00,
2013-07-12 23:35:00,65.1,52.6,30.26,North,0,0.0,0.0,64,0.00,,SKC,0.00,VWS V14.01,2013-07-13 03:35:00,
2013-07-12 23:40:00,65.1,52.6,30.26,North,0,0.0,0.0,64,0.00,,SKC,0.00,VWS V14.01,2013-07-13 03:40:00,
2013-07-12 23:45:00,64.9,52.5,30.26,North,0,0.0,0.0,64,0.00,,SKC,0.00,VWS V14.01,2013-07-13 03:45:00,
2013-07-12 23:51:00,64.7,52.3,30.26,North,0,0.0,0.0,64,0.00,,SKC,0.00,VWS V14.01,2013-07-13 03:51:00,
2013-07-12 23:56:00,64.5,52.1,30.26,North,0,0.0,0.0,64,0.00,,SKC,0.00,VWS V14.01,2013-07-13 03:56:00,